"2010-05-10 00:00:00",98380,2.52,358.3,9.36,0.443,15.35,106.7913,16.66,17.71,29.83,0,110.7,13.26,17.47,320.3
"2010-05-10 00:00:30",98381,3.431,16.1,4.103,0.645,15.38,106.8169,16.73,17.71,30.09,0,110.7,13.26,17.54,338.1
"2010-05-10 00:01:00",98382,4.158,18.56,3.581,0.522,15.4,106.822,16.74,17.73,30.04,0,110.7,13.26,17.55,340.6
"2010-05-10 00:01:30",98383,4.175,20.65,2.233,0.36,15.37,106.8262,16.75,17.74,29.57,0,110.7,13.26,17.56,342.6
"2010-05-10 00:02:00",98384,3.651,27.1,3.613,0.484,15.34,106.8499,16.81,17.77,29.06,0,110.7,13.26,17.62,349.1
"2010-05-10 00:02:30",98385,3.512,24.08,3.797,0.307,15.37,106.8558,16.83,17.79,28.84,0,110.7,13.26,17.64,346.1
"2010-05-10 00:03:00",98386,3.895,21.7,3.599,0.36,15.42,106.8597,16.84,17.82,28.71,0,110.7,13.26,17.65,343.7
"2010-05-10 00:03:30",98387,3.987,23.46,5.722,0.49,15.47,106.8867,16.9,17.84,28.64,0,110.7,13.26,17.72,345.5
"2010-05-10 00:04:00",98388,3.7,19.27,3.822,0.569,15.54,106.8896,16.91,17.87,28.92,0,110.7,13.26,17.72,341.3
"2010-05-10 00:04:30",98389,3.36,24.32,7.91,0.615,15.59,106.9,16.94,17.88,29.08,0,110.7,13.26,17.75,346.3
"2010-05-10 00:05:00",98390,4.446,33.22,4.613,0.678,15.61,106.9231,17,17.93,28.74,0,110.7,13.26,17.81,355.2
"2010-05-10 00:05:30",98391,2.871,15.37,8.95,1.16,15.72,106.9233,17,17.95,28.62,0,110.7,13.26,17.81,337.4
"2010-05-10 00:06:00",98392,3.698,17.95,2.492,0.506,15.53,106.9306,17.02,17.98,29.02,0,110.7,13.26,17.83,340.0
"2010-05-10 00:06:30",98393,3.686,17.61,2.723,0.681,15.49,106.9535,17.08,18.01,29.4,0,110.7,13.25,17.89,339.6
"2010-05-10 00:07:00",98394,4.61,21.32,2.619,0.292,15.44,106.9571,17.09,18.04,29.59,0,110.7,13.25,17.90,343.3
"2010-05-10 00:07:30",98395,4.096,20.54,3.084,0.405,15.45,106.9574,17.09,18.06,29.88,0,110.7,13.25,17.90,342.5
"2010-05-10 00:08:00",98396,4.509,24.75,3.903,0.381,15.55,106.9723,17.12,18.09,29.92,0,110.7,13.25,17.94,346.8
"2010-05-10 00:08:30",98397,4.023,25.68,3.852,0.446,15.54,106.99,17.17,18.11,29.62,0,110.7,13.25,17.98,347.7
"2010-05-10 00:09:00",98398,3.699,22.44,5.294,0.626,15.52,106.9909,17.17,18.13,29.76,0,110.7,13.25,17.98,344.4
"2010-05-10 00:09:30",98399,4.282,21.85,2.26,0.264,15.62,106.9909,17.17,18.15,29.72,0,110.7,13.25,17.98,343.9
"2010-05-10 00:10:00",98400,3.694,19.55,3.042,0.436,15.65,106.994,17.18,18.15,29.25,0,110.7,13.25,17.99,341.5
"2010-05-10 00:10:30",98401,2.465,12.06,6.297,0.685,15.7,107.012,17.23,18.18,29.57,0,110.7,13.25,18.04,334.1
"2010-05-10 00:11:00",98402,3.516,16.46,5.941,0.878,15.65,107.0244,17.26,18.21,29.8,0,110.7,13.25,18.07,338.5
"2010-05-10 00:11:30",98403,3.839,17.3,4.552,0.92,15.65,107.0247,17.26,18.22,29.53,0,110.7,13.25,18.07,339.3
"2010-05-10 00:12:00",98404,3.802,16.55,2.187,0.648,15.66,107.0247,17.26,18.24,29.24,0,110.7,13.25,18.07,338.5
"2010-05-10 00:12:30",98405,4.07,18.73,2.754,0.277,15.61,107.0247,17.26,18.24,29.04,0,110.7,13.25,18.07,340.7
"2010-05-10 00:13:00",98406,3.449,15.32,3.533,0.769,15.72,107.0289,17.27,18.26,29.07,0,110.7,13.26,18.08,337.3
"2010-05-10 00:13:30",98407,3.039,14.31,3.124,0.488,15.72,107.0427,17.3,18.29,28.98,0,110.7,13.26,18.12,336.3
"2010-05-10 00:14:00",98408,4.07,15.11,7.214,0.689,15.75,107.0497,17.32,18.29,28.73,0,110.7,13.26,18.14,337.1
"2010-05-10 00:14:30",98409,3.935,20.49,2.833,0.495,15.63,107.0576,17.34,18.32,29.39,0,110.7,13.25,18.16,342.5
"2010-05-10 00:15:00",98410,4.096,18.28,2.092,0.347,15.7,107.0584,17.34,18.32,29.79,0,110.7,13.26,18.16,340.3
"2010-05-10 00:15:30",98411,3.753,16.53,2.835,0.596,15.74,107.0584,17.34,18.33,29.42,0,110.7,13.26,18.16,338.5
"2010-05-10 00:16:00",98412,3.726,19.88,3.821,0.389,15.76,107.0584,17.34,18.34,28.83,0,110.7,13.26,18.16,341.9
"2010-05-10 00:16:30",98413,3.74,21.27,6.061,0.649,15.72,107.0584,17.34,18.35,28.62,0,110.7,13.26,18.16,343.3
"2010-05-10 00:17:00",98414,4.43,20.02,3.924,0.568,15.76,107.0584,17.34,18.35,28.36,0,110.7,13.26,18.16,342.0
"2010-05-10 00:17:30",98415,3.654,20.23,4.04,0.554,15.69,107.0584,17.34,18.36,28.31,0,110.7,13.26,18.16,342.2
"2010-05-10 00:18:00",98416,4.184,22.66,2.515,0.492,15.73,107.0584,17.34,18.38,27.82,0,110.7,13.26,18.16,344.7
"2010-05-10 00:18:30",98417,4.251,19.3,1.582,0.344,15.65,107.0584,17.34,18.38,27.81,0,110.7,13.26,18.16,341.3
"2010-05-10 00:19:00",98418,4.625,19.36,1.747,0.357,15.64,107.0584,17.34,18.39,28.17,0,110.7,13.26,18.16,341.4
"2010-05-10 00:19:30",98419,4.01,19.23,1.807,0.349,15.63,107.0584,17.34,18.39,28.11,0,110.7,13.26,18.16,341.2
"2010-05-10 00:20:00",98420,3.541,18.99,2.636,0.364,15.66,107.0584,17.34,18.39,27.74,0,110.7,13.26,18.16,341.0
"2010-05-10 00:20:30",98421,3.54,21.65,3.806,0.252,15.62,107.0584,17.34,18.39,27.47,0,110.7,13.26,18.16,343.6
"2010-05-10 00:21:00",98422,3.394,23.73,4.56,0.476,15.57,107.0595,17.35,18.4,27.42,0,110.7,13.26,18.16,345.7
"2010-05-10 00:21:30",98423,3.764,24.75,2.664,0.269,15.57,107.0643,17.36,18.39,27.45,0,110.7,13.26,18.17,346.8
"2010-05-10 00:22:00",98424,3.888,23.36,2.302,0.306,15.64,107.0747,17.39,18.41,27.03,0,110.7,13.26,18.20,345.4
"2010-05-10 00:22:30",98425,3.758,23.05,2.907,0.409,15.59,107.0846,17.41,18.41,27.07,0,110.7,13.26,18.22,345.0
"2010-05-10 00:23:00",98426,3.833,25.01,2.641,0.312,15.59,107.0913,17.43,18.43,27.06,0,110.7,13.26,18.24,347.0
"2010-05-10 00:23:30",98427,3.954,25.13,5.183,0.343,15.64,107.0922,17.43,18.43,27.2,0,110.7,13.25,18.24,347.1
"2010-05-10 00:24:00",98428,3.813,26.49,3.107,0.223,15.64,107.0922,17.43,18.45,26.75,0,110.7,13.25,18.24,348.5
"2010-05-10 00:24:30",98429,4.17,24.79,3.117,0.365,15.39,107.0922,17.43,18.45,28.09,0,110.7,13.25,18.24,346.8
"2010-05-10 00:25:00",98430,4.596,22.56,1.898,0.384,15.5,107.0922,17.43,18.47,28.72,0,110.7,13.25,18.24,344.6
"2010-05-10 00:25:30",98431,4.457,23.93,2.098,0.371,15.57,107.0922,17.43,18.46,28.64,0,110.7,13.25,18.24,345.9
"2010-05-10 00:26:00",98432,4.346,23.18,2.152,0.416,15.61,107.0922,17.43,18.47,28.37,0,110.7,13.25,18.24,345.2
"2010-05-10 00:26:30",98433,3.969,27.86,3.775,0.406,15.63,107.0922,17.43,18.48,27.94,0,110.7,13.25,18.24,349.9
"2010-05-10 00:27:00",98434,4.721,25.31,3.793,0.374,15.62,107.0922,17.43,18.47,28.04,0,110.7,13.25,18.24,347.3
"2010-05-10 00:27:30",98435,4.348,26.76,2.604,0.4,15.63,107.0922,17.43,18.48,28.42,0,110.7,13.25,18.24,348.8
"2010-05-10 00:28:00",98436,4.818,33.75,2.174,0.524,15.77,107.0922,17.43,18.48,27.97,0,110.7,13.25,18.24,355.8
"2010-05-10 00:28:30",98437,4.499,32.05,1.626,0.43,15.76,107.0922,17.43,18.47,27.78,0,110.7,13.25,18.24,354.0
"2010-05-10 00:29:00",98438,5.067,32,1.59,0.494,15.68,107.0857,17.41,18.48,28.35,0,110.7,13.25,18.23,354.0
"2010-05-10 00:29:30",98439,4.46,30.09,1.202,0.293,15.68,107.0615,17.35,18.46,28.85,0,110.7,13.25,18.17,352.1
"2010-05-10 00:30:00",98440,4.944,32.29,2.648,0.697,15.78,107.0584,17.34,18.45,28.9,0,110.7,13.26,18.16,354.3
"2010-05-10 00:30:30",98441,4.826,31.67,3.663,0.44,15.75,107.0534,17.33,18.44,28.97,0,110.7,13.26,18.14,353.7
"2010-05-10 00:31:00",98442,4.948,33.45,3.033,0.637,15.82,107.028,17.27,18.42,28.88,0,110.7,13.26,18.08,355.5
"2010-05-10 00:31:30",98443,4.66,32.16,1.807,0.44,15.85,107.0247,17.26,18.4,28.7,0,110.7,13.26,18.07,354.2
"2010-05-10 00:32:00",98444,5.056,33.06,3.184,0.624,15.89,107.0033,17.2,18.36,28.56,0,110.7,13.26,18.02,355.1
"2010-05-10 00:32:30",98445,4.797,32.62,2.158,0.528,15.83,106.9909,17.17,18.34,28.61,0,110.7,13.26,17.98,354.6
"2010-05-10 00:33:00",98446,5.262,34.53,1.9,0.419,15.82,106.9875,17.16,18.32,28.75,0,110.7,13.26,17.98,356.5
"2010-05-10 00:33:30",98447,5.152,33.33,2.074,0.407,15.81,106.9608,17.09,18.28,28.99,0,110.7,13.26,17.91,355.3
"2010-05-10 00:34:00",98448,5.616,33.5,1.587,0.61,15.84,106.9574,17.09,18.26,29.02,0,110.7,13.26,17.90,355.5
"2010-05-10 00:34:30",98449,5.328,33.35,2.756,0.659,15.82,106.9433,17.05,18.22,28.89,0,110.7,13.26,17.86,355.4
"2010-05-10 00:35:00",98450,5.138,29.53,3.997,0.441,15.77,106.9239,17,18.18,28.88,0,110.7,13.26,17.81,351.5
"2010-05-10 00:35:30",98451,4.456,26.21,1.959,0.466,15.65,106.9233,17,18.17,29.67,0,110.7,13.26,17.81,348.2
"2010-05-10 00:36:00",98452,4.654,28.28,3.599,0.516,15.63,106.9197,16.99,18.15,29.8,0,110.7,13.26,17.80,350.3
"2010-05-10 00:36:30",98453,4.769,29.77,2.488,0.433,15.67,106.9,16.94,18.11,29.83,0,110.7,13.26,17.75,351.8
"2010-05-10 00:37:00",98454,4.744,26.27,1.721,0.456,15.62,106.8896,16.91,18.09,30.02,0,110.7,13.26,17.72,348.3
"2010-05-10 00:37:30",98455,4.764,28.73,1.848,0.404,15.62,106.8896,16.91,18.07,30.05,0,110.7,13.26,17.72,350.7
"2010-05-10 00:38:00",98456,4.1,25.69,2.998,0.376,15.56,106.8899,16.91,18.05,30.11,0,110.7,13.26,17.72,347.7
"2010-05-10 00:38:30",98457,4.551,28.73,2.453,0.478,15.58,106.8882,16.91,18.03,30.16,0,110.7,13.26,17.72,350.7
"2010-05-10 00:39:00",98458,4.469,25.42,2.936,0.455,15.57,106.8693,16.86,18.03,30.07,0,110.7,13.26,17.67,347.4
"2010-05-10 00:39:30",98459,4.694,20.27,2.4,0.296,15.56,106.8578,16.83,18,30.18,0,110.7,13.26,17.64,342.3
"2010-05-10 00:40:00",98460,4.633,18.28,1.584,0.425,15.5,106.8569,16.83,17.98,30.29,0,110.7,13.26,17.64,340.3
"2010-05-10 00:40:30",98461,4.659,20.04,2.318,0.237,15.61,106.8561,16.83,17.97,30.28,0,110.7,13.25,17.64,342.0
"2010-05-10 00:41:00",98462,4.389,19.63,1.945,0.296,15.68,106.8564,16.83,17.96,30.27,0,110.7,13.25,17.64,341.6
"2010-05-10 00:41:30",98463,3.945,17.76,4.925,0.634,15.64,106.857,16.83,17.95,30.29,0,110.7,13.25,17.64,339.8
"2010-05-10 00:42:00",98464,4.144,17.59,3.086,0.404,15.68,106.8567,16.83,17.96,30.23,0,110.7,13.25,17.64,339.6
"2010-05-10 00:42:30",98465,4.155,23.27,3.227,0.24,15.81,106.8576,16.83,17.95,30.07,0,110.7,13.25,17.64,345.3
"2010-05-10 00:43:00",98466,4.062,18.79,2.123,0.228,15.73,106.8582,16.83,17.93,30.13,0,110.7,13.25,17.64,340.8
"2010-05-10 00:43:30",98467,4.748,20.85,1.724,0.4,15.76,106.8591,16.83,17.93,30.25,0,110.7,13.25,17.64,342.9
"2010-05-10 00:44:00",98468,4.754,22.51,3.189,0.506,15.84,106.8597,16.84,17.94,30.26,0,110.7,13.25,17.65,344.5
"2010-05-10 00:44:30",98469,3.82,18.6,3.684,0.792,15.76,106.8633,16.84,17.92,30.27,0,110.7,13.25,17.66,340.6
"2010-05-10 00:45:00",98470,3.493,16.88,2.972,0.459,15.69,106.8654,16.85,17.92,30.4,0,110.7,13.26,17.66,338.9
"2010-05-10 00:45:30",98471,3.876,16.99,2.567,0.632,15.7,106.8699,16.86,17.92,30.46,0,110.7,13.26,17.67,339.0
"2010-05-10 00:46:00",98472,3.725,16.67,3.199,0.531,15.67,106.8714,16.87,17.91,30.51,0,110.7,13.26,17.68,338.7
"2010-05-10 00:46:30",98473,3.331,13.74,3.613,0.507,15.65,106.8732,16.87,17.92,30.48,0,110.7,13.26,17.68,335.7
"2010-05-10 00:47:00",98474,3.829,16.69,3.976,0.693,15.66,106.8769,16.88,17.91,30.48,0,110.7,13.26,17.69,338.7
"2010-05-10 00:47:30",98475,3.588,15.36,1.813,0.34,15.62,106.8719,16.87,17.9,30.49,0,110.7,13.26,17.68,337.4
"2010-05-10 00:48:00",98476,2.725,11.58,2.603,0.344,15.59,106.8705,16.86,17.9,30.48,0,110.7,13.26,17.67,333.6
"2010-05-10 00:48:30",98477,3.031,13.31,2.173,0.274,15.53,106.869,16.86,17.9,30.6,0,110.7,13.26,17.67,335.3
"2010-05-10 00:49:00",98478,3.332,14.93,1.969,0.377,15.55,106.8532,16.82,17.88,30.65,0,110.7,13.26,17.63,336.9
"2010-05-10 00:49:30",98479,3.787,16.31,2.96,0.478,15.55,106.8482,16.81,17.89,30.61,0,110.7,13.26,17.62,338.3
"2010-05-10 00:50:00",98480,4.015,17.17,2.539,0.398,15.66,106.8491,16.81,17.87,30.56,0,110.7,13.26,17.62,339.2
"2010-05-10 00:50:30",98481,3.946,16.87,1.96,0.312,15.6,106.8488,16.81,17.86,30.48,0,110.7,13.26,17.62,338.9
"2010-05-10 00:51:00",98482,4.028,18.43,1.298,0.228,15.63,106.8515,16.81,17.86,30.46,0,110.7,13.27,17.63,340.4
"2010-05-10 00:51:30",98483,3.871,17.74,1.525,0.388,15.69,106.8497,16.81,17.85,30.38,0,110.7,13.27,17.62,339.7
"2010-05-10 00:52:00",98484,3.281,12.48,3.168,0.346,15.62,106.8533,16.82,17.85,30.36,0,110.7,13.27,17.63,334.5
"2010-05-10 00:52:30",98485,3.022,13.97,3.545,0.463,15.62,106.8539,16.82,17.84,30.38,0,110.7,13.27,17.63,336.0
"2010-05-10 00:53:00",98486,3.604,16.56,3.479,0.646,15.55,106.8475,16.8,17.85,30.34,0,110.7,13.27,17.62,338.6
"2010-05-10 00:53:30",98487,4.23,19.04,1.72,0.297,15.65,106.8435,16.79,17.82,30.32,0,110.7,13.27,17.60,341.0
"2010-05-10 00:54:00",98488,4.288,20.5,1.741,0.207,15.65,106.836,16.77,17.82,30.26,0,110.7,13.27,17.59,342.5
"2010-05-10 00:54:30",98489,4.026,19.45,2.374,0.315,15.61,106.8298,16.76,17.82,30.27,0,110.7,13.27,17.57,341.5
"2010-05-10 00:55:00",98490,3.884,17.63,2.041,0.345,15.58,106.8262,16.75,17.82,30.39,0,110.7,13.27,17.56,339.6
"2010-05-10 00:55:30",98491,4.362,19.35,1.183,0.22,15.64,106.8236,16.74,17.8,30.4,0,110.7,13.27,17.55,341.4
"2010-05-10 00:56:00",98492,4.502,19.49,1.384,0.202,15.64,106.824,16.74,17.79,30.32,0,110.7,13.27,17.55,341.5
"2010-05-10 00:56:30",98493,4.438,18.61,1.023,0.223,15.63,106.8237,16.74,17.81,30.24,0,110.7,13.27,17.55,340.6
"2010-05-10 00:57:00",98494,4.506,18.87,0.938,0.192,15.6,106.8243,16.74,17.79,30.21,0,110.7,13.27,17.56,340.9
"2010-05-10 00:57:30",98495,4.647,21.48,1.731,0.224,15.65,106.8243,16.74,17.8,30.13,0,110.7,13.26,17.56,343.5
"2010-05-10 00:58:00",98496,4.659,21.17,1.583,0.248,15.65,106.8243,16.74,17.78,30.05,0,110.7,13.26,17.56,343.2
"2010-05-10 00:58:30",98497,4.83,20.02,1.091,0.134,15.63,106.8243,16.74,17.79,30.08,0,110.7,13.26,17.56,342.0
"2010-05-10 00:59:00",98498,4.93,20.78,1.272,0.174,15.67,106.8243,16.74,17.8,30.1,0,110.7,13.26,17.56,342.8
"2010-05-10 00:59:30",98499,4.828,22.99,1.519,0.271,15.68,106.8243,16.74,17.78,30.11,0,110.7,13.26,17.56,345.0
"2010-05-10 01:00:00",98500,4.503,24.26,1.291,0.252,15.71,106.8243,16.74,17.79,30.04,0,110.7,13.26,17.56,346.3
"2010-05-10 01:00:30",98501,4.749,23.63,1.994,0.23,15.75,106.8243,16.74,17.79,30.02,0,110.7,13.26,17.56,345.6
"2010-05-10 01:01:00",98502,4.718,21.73,1.413,0.176,15.64,106.8243,16.74,17.77,30.09,0,110.7,13.26,17.56,343.7
"2010-05-10 01:01:30",98503,4.868,21.57,1.45,0.152,15.69,106.8243,16.74,17.77,30.09,0,110.7,13.26,17.56,343.6
"2010-05-10 01:02:00",98504,4.846,21.1,0.942,0.147,15.67,106.8243,16.74,17.77,30.11,0,110.7,13.26,17.56,343.1
"2010-05-10 01:02:30",98505,4.726,22.8,0.951,0.157,15.65,106.8243,16.74,17.78,30.11,0,110.7,13.27,17.56,344.8
"2010-05-10 01:03:00",98506,4.401,24.68,1.249,0.232,15.76,106.8243,16.74,17.76,30.01,0,110.7,13.27,17.56,346.7
"2010-05-10 01:03:30",98507,4.703,23.82,1.709,0.313,15.8,106.8235,16.74,17.76,29.9,0,110.7,13.27,17.55,345.8
"2010-05-10 01:04:00",98508,4.565,24.74,1.706,0.335,15.8,106.8122,16.71,17.74,29.83,0,110.7,13.27,17.52,346.7
"2010-05-10 01:04:30",98509,4.686,23.62,2.167,0.369,15.77,106.7979,16.68,17.74,29.82,0,110.7,13.27,17.49,345.6
"2010-05-10 01:05:00",98510,4.491,24.16,1.644,0.299,15.81,106.7917,16.66,17.74,29.83,0,110.7,13.27,17.47,346.2
"2010-05-10 01:05:30",98511,4.539,23.96,1.653,0.289,15.83,106.7905,16.66,17.73,29.83,0,110.7,13.27,17.47,346.0
"2010-05-10 01:06:00",98512,4.648,23.66,1.88,0.256,15.73,106.7905,16.66,17.71,29.89,0,110.7,13.27,17.47,345.7
"2010-05-10 01:06:30",98513,4.627,21.79,1.661,0.244,15.7,106.7905,16.66,17.72,29.93,0,110.7,13.27,17.47,343.8
"2010-05-10 01:07:00",98514,4.505,21.73,2.289,0.27,15.68,106.7905,16.66,17.7,29.98,0,110.7,13.27,17.47,343.7
"2010-05-10 01:07:30",98515,4.527,20.19,1.47,0.2,15.72,106.7903,16.66,17.7,30.03,0,110.7,13.27,17.47,342.2
"2010-05-10 01:08:00",98516,4.601,18.92,0.822,0.225,15.67,106.7866,16.65,17.68,30.1,0,110.6,13.27,17.46,340.9
"2010-05-10 01:08:30",98517,4.257,17.76,1.406,0.347,15.59,106.7759,16.62,17.68,30.08,0,110.7,13.27,17.43,339.8
"2010-05-10 01:09:00",98518,3.841,16.57,2.372,0.415,15.59,106.7632,16.59,17.67,30.04,0,110.6,13.27,17.40,338.6
"2010-05-10 01:09:30",98519,3.579,14.74,2.66,0.663,15.62,106.7568,16.57,17.68,30.02,0,110.7,13.27,17.38,336.7
"2010-05-10 01:10:00",98520,3.786,15.15,2.584,0.33,15.65,106.7568,16.57,17.66,30,0,110.6,13.27,17.38,337.1
"2010-05-10 01:10:30",98521,4.101,17.2,1.716,0.274,15.73,106.7568,16.57,17.63,30.02,0,110.6,13.27,17.38,339.2
"2010-05-10 01:11:00",98522,4.168,16.89,1.715,0.386,15.73,106.7565,16.57,17.64,30.02,0,110.6,13.27,17.38,338.9
"2010-05-10 01:11:30",98523,3.649,13.43,4.832,0.775,15.77,106.7455,16.54,17.63,30.02,0,110.6,13.27,17.35,335.4
"2010-05-10 01:12:00",98524,4.111,18.02,1.149,0.234,15.83,106.7233,16.49,17.6,30.04,0,110.6,13.27,17.30,340.0
"2010-05-10 01:12:30",98525,3.59,14.61,3.575,0.532,15.84,106.723,16.49,17.59,30.03,0,110.6,13.27,17.29,336.6
"2010-05-10 01:13:00",98526,3.837,16.45,2.468,0.516,15.86,106.7227,16.48,17.57,30.01,0,110.6,13.27,17.29,338.5
"2010-05-10 01:13:30",98527,4.33,19.41,1.918,0.337,15.94,106.7106,16.45,17.56,30.02,0,110.6,13.27,17.26,341.4
"2010-05-10 01:14:00",98528,4.414,20.17,2.139,0.343,16.05,106.6897,16.4,17.55,30.09,0,110.6,13.27,17.21,342.2
"2010-05-10 01:14:30",98529,4.399,22.16,2.11,0.226,16.14,106.6892,16.4,17.52,30.15,0,110.6,13.27,17.21,344.2
"2010-05-10 01:15:00",98530,4.565,21.13,1.68,0.267,16.18,106.6869,16.39,17.51,30.17,0,110.6,13.27,17.20,343.1
"2010-05-10 01:15:30",98531,4.092,17.7,2.669,0.572,16.07,106.665,16.34,17.48,30.14,0,110.6,13.27,17.15,339.7
"2010-05-10 01:16:00",98532,4.53,19.19,1.16,0.255,16.07,106.6554,16.31,17.46,30.15,0,110.6,13.27,17.12,341.2
"2010-05-10 01:16:30",98533,4.33,17.8,1.695,0.373,16.03,106.6549,16.31,17.43,30.11,0,110.6,13.27,17.12,339.8
"2010-05-10 01:17:00",98534,4.649,21.75,3.607,0.429,16.18,106.6318,16.25,17.41,30.11,0,110.6,13.27,17.06,343.8
"2010-05-10 01:17:30",98535,4.609,24.67,2.713,0.294,16.28,106.6246,16.23,17.38,30.24,0,110.6,13.27,17.04,346.7
"2010-05-10 01:18:00",98536,4.522,23.62,3.528,0.531,16.22,106.6192,16.22,17.37,30.3,0,110.6,13.27,17.03,345.6
"2010-05-10 01:18:30",98537,4.497,25.7,2.442,0.305,16.27,106.595,16.16,17.34,30.41,0,110.6,13.27,16.97,347.7
"2010-05-10 01:19:00",98538,4.746,22.38,3.062,0.386,16.18,106.5851,16.13,17.3,30.46,0,110.6,13.27,16.94,344.4
"2010-05-10 01:19:30",98539,4.581,18.03,1.552,0.422,16.07,106.5669,16.09,17.27,30.38,0,110.6,13.28,16.89,340.0
"2010-05-10 01:20:00",98540,4.689,21.5,3.112,0.357,16.15,106.5711,16.1,17.21,30.43,0,110.6,13.28,16.90,343.5
"2010-05-10 01:20:30",98541,4.972,22.37,1.942,0.358,16.27,106.5499,16.04,17.2,30.55,0,110.6,13.28,16.85,344.4
"2010-05-10 01:21:00",98542,4.858,23.33,2.319,0.256,16.25,106.5452,16.03,17.16,30.64,0,110.6,13.28,16.84,345.3
"2010-05-10 01:21:30",98543,5.15,23.12,3.528,0.35,16.25,106.5228,15.97,17.12,30.66,0,110.6,13.28,16.78,345.1
"2010-05-10 01:22:00",98544,5.252,19.7,1.386,0.235,16.22,106.5174,15.96,17.1,30.7,0,110.6,13.28,16.77,341.7
"2010-05-10 01:22:30",98545,4.839,18.74,2.134,0.386,16.21,106.5054,15.93,17.06,30.71,0,110.6,13.28,16.74,340.7
"2010-05-10 01:23:00",98546,5.238,23.5,2.792,0.484,16.29,106.4881,15.88,17.03,30.77,0,110.6,13.28,16.69,345.5
"2010-05-10 01:23:30",98547,5.378,21.08,1.934,0.342,16.3,106.4844,15.87,17,30.88,0,110.6,13.29,16.68,343.1
"2010-05-10 01:24:00",98548,5.234,20.34,1.892,0.312,16.21,106.458,15.81,16.95,30.85,0,110.6,13.29,16.61,342.3
"2010-05-10 01:24:30",98549,5.523,19.41,2.28,0.498,16.15,106.4546,15.8,16.92,30.9,0,110.6,13.29,16.60,341.4
"2010-05-10 01:25:00",98550,5.742,19.88,1.627,0.265,16.23,106.4422,15.77,16.89,30.92,0,110.6,13.29,16.57,341.9
"2010-05-10 01:25:30",98551,5.4,18.8,1.725,0.495,16.2,106.4216,15.71,16.86,30.96,0,110.6,13.29,16.52,340.8
"2010-05-10 01:26:00",98552,4.829,16.83,1.98,0.543,16.09,106.4211,15.71,16.83,30.99,0,110.6,13.29,16.52,338.8
"2010-05-10 01:26:30",98553,4.285,14.76,2.542,0.552,16.02,106.4019,15.66,16.81,31.09,0,110.6,13.29,16.47,336.8
"2010-05-10 01:27:00",98554,4.184,11.25,4.899,0.587,16.01,106.3873,15.62,16.78,31.19,0,110.6,13.29,16.43,333.2
"2010-05-10 01:27:30",98555,5.267,17.37,1.345,0.466,16.11,106.3814,15.61,16.75,31.23,0,110.6,13.3,16.42,339.4
"2010-05-10 01:28:00",98556,5.264,17.04,1.625,0.624,16.07,106.3552,15.54,16.71,31.3,0,110.6,13.3,16.35,339.0
"2010-05-10 01:28:30",98557,5.213,16.61,2.311,0.569,16.04,106.3529,15.54,16.69,31.36,0,110.6,13.3,16.34,338.6
"2010-05-10 01:29:00",98558,4.649,12.9,3.289,0.444,16.04,106.3273,15.47,16.65,31.4,0,110.6,13.3,16.28,334.9
"2010-05-10 01:29:30",98559,4.408,10.87,3.742,0.396,16.01,106.3197,15.45,16.62,31.41,0,110.6,13.3,16.26,332.9
"2010-05-10 01:30:00",98560,4.472,11.4,3.861,0.471,16.02,106.3034,15.41,16.6,31.39,0,110.5,13.3,16.22,333.4
"2010-05-10 01:30:30",98561,4.348,12.41,2.215,0.296,16.01,106.2859,15.37,16.55,31.38,0,110.5,13.3,16.17,334.4
"2010-05-10 01:31:00",98562,5.404,17.45,1.77,0.638,16.08,106.2786,15.35,16.52,31.35,0,110.5,13.29,16.15,339.5
"2010-05-10 01:31:30",98563,4.651,13.17,4.921,0.785,16.08,106.253,15.28,16.48,31.45,0,110.5,13.29,16.09,335.2
"2010-05-10 01:32:00",98564,5.367,17.1,1.614,0.59,16.14,106.2515,15.28,16.45,31.52,0,110.5,13.29,16.08,339.1
"2010-05-10 01:32:30",98565,4.875,14.27,4.385,0.785,16.12,106.2299,15.22,16.42,31.55,0,110.5,13.29,16.03,336.3
"2010-05-10 01:33:00",98566,5.022,16.72,1.27,0.306,16.19,106.2192,15.19,16.39,31.64,0,110.5,13.29,16.00,338.7
"2010-05-10 01:33:30",98567,5.092,16.12,1.999,0.453,16.13,106.2194,15.19,16.35,31.67,0,110.5,13.29,16.00,338.1
"2010-05-10 01:34:00",98568,4.965,16.47,2.258,0.682,16.09,106.195,15.13,16.33,31.7,0,110.5,13.29,15.94,338.5
"2010-05-10 01:34:30",98569,4.846,15.88,2.088,0.58,16.04,106.1923,15.13,16.3,31.7,0,110.5,13.3,15.93,337.9
"2010-05-10 01:35:00",98570,5.019,15.93,1.619,0.483,16.06,106.186,15.11,16.28,31.72,0,110.5,13.3,15.91,337.9
"2010-05-10 01:35:30",98571,5.391,17.24,1.811,0.633,16.08,106.1661,15.06,16.24,31.78,0,110.5,13.3,15.86,339.2
"2010-05-10 01:36:00",98572,6.349,19.08,0.852,0.309,16.19,106.1687,15.06,16.21,31.83,0,110.5,13.3,15.87,341.1
"2010-05-10 01:36:30",98573,6.11,18.2,1.457,0.526,16.14,106.1723,15.07,16.2,31.86,0,110.5,13.3,15.88,340.2
"2010-05-10 01:37:00",98574,5.842,17.61,1.526,0.449,16.11,106.1589,15.04,16.17,31.92,0,110.5,13.3,15.84,339.6
"2010-05-10 01:37:30",98575,6.001,17.5,1.124,0.27,16.1,106.1507,15.02,16.13,31.97,0,110.5,13.31,15.82,339.5
"2010-05-10 01:38:00",98576,6.19,17.89,1.147,0.476,16.12,106.1513,15.02,16.12,32.02,0,110.5,13.31,15.82,339.9
"2010-05-10 01:38:30",98577,5.744,16.89,1.667,0.414,16.16,106.1471,15.01,16.08,32.03,0,110.5,13.31,15.81,338.9
"2010-05-10 01:39:00",98578,6.145,18.01,1.105,0.513,16.19,106.1339,14.98,16.07,32.07,0,110.5,13.31,15.78,340.0
"2010-05-10 01:39:30",98579,6.265,18,1.108,0.242,16.18,106.1187,14.94,16.05,32.14,0,110.5,13.31,15.74,340.0
"2010-05-10 01:40:00",98580,6.421,17.92,0.899,0.209,16.2,106.119,14.94,16.04,32.28,0,110.5,13.31,15.74,339.9
"2010-05-10 01:40:30",98581,6.462,18.13,0.932,0.295,16.22,106.1179,14.93,16,32.34,0,110.5,13.31,15.74,340.1
"2010-05-10 01:41:00",98582,6.834,18.56,1.126,0.26,16.22,106.1052,14.9,15.99,32.38,0,110.5,13.31,15.71,340.6
"2010-05-10 01:41:30",98583,7.68,19.57,1.021,0.259,16.21,106.0855,14.85,15.96,32.44,0,110.5,13.31,15.66,341.6
"2010-05-10 01:42:00",98584,7.757,20.58,1.072,0.186,16.2,106.0852,14.85,15.96,32.5,0,110.5,13.31,15.65,342.6
"2010-05-10 01:42:30",98585,7.606,20.25,1.213,0.225,16.17,106.0852,14.85,15.95,32.49,0,110.5,13.31,15.65,342.2
"2010-05-10 01:43:00",98586,7.634,20.84,1.346,0.271,16.18,106.0852,14.85,15.92,32.36,0,110.5,13.31,15.65,342.8
"2010-05-10 01:43:30",98587,7.48,21.57,2.05,0.336,16.16,106.0784,14.83,15.9,32.32,0,110.5,13.31,15.64,343.6
"2010-05-10 01:44:00",98588,7.146,24.29,1.308,0.374,16.22,106.0686,14.81,15.9,32.21,0,110.5,13.31,15.61,346.3
"2010-05-10 01:44:30",98589,6.869,24.44,0.98,0.302,16.22,106.055,14.77,15.87,32.13,0,110.5,13.31,15.58,346.4
"2010-05-10 01:45:00",98590,7.089,23.66,1.211,0.336,16.22,106.0514,14.76,15.88,32.09,0,110.5,13.31,15.57,345.7
"2010-05-10 01:45:30",98591,7.501,21.43,1.299,0.353,16.22,106.0514,14.76,15.86,32.11,0,110.5,13.31,15.57,343.4
"2010-05-10 01:46:00",98592,6.977,24.11,1.472,0.35,16.36,106.0514,14.76,15.84,31.97,0,110.5,13.31,15.57,346.1
"2010-05-10 01:46:30",98593,7.109,22.48,1.363,0.265,16.32,106.0514,14.76,15.84,31.99,0,110.5,13.31,15.57,344.5
"2010-05-10 01:47:00",98594,7.302,23.56,1.069,0.278,16.37,106.0514,14.76,15.82,31.84,0,110.5,13.31,15.57,345.6
"2010-05-10 01:47:30",98595,7.181,20.47,1.974,0.404,16.23,106.0514,14.76,15.83,31.89,0,110.5,13.31,15.57,342.5
"2010-05-10 01:48:00",98596,7.264,22.72,1.769,0.345,16.27,106.0517,14.77,15.81,31.92,0,110.5,13.31,15.57,344.7
"2010-05-10 01:48:30",98597,7.22,22.36,2.274,0.541,16.27,106.0514,14.76,15.81,31.83,0,110.5,13.31,15.57,344.4